Weather History for KTKC - August, 2014

Change the Weather History Date:

Tuesday, August 19, 2014

  Actual Average (KMML) Record (KMML)
Temperature  
Mean Temperature 72 °F -  
Max Temperature 83 °F 80 °F 98 °F (1955)
Min Temperature 62 °F 58 °F 41 °F (1967)
Cooling Degree Days 8    
Growing Degree Days 22 (Base 50)    
Moisture  
Dew Point 64 °F    
Average Humidity 75    
Maximum Humidity 94    
Minimum Humidity 52    
Precipitation  
Precipitation 0.00 in - - ()
Sea Level Pressure  
Sea Level Pressure 29.79 in    
Wind  
Wind Speed 1 mph (NNW)    
Max Wind Speed 12 mph    
Max Gust Speed 18 mph    
Visibility 10 miles    
Events      
Averages and records for this station are not official NWS values.
T = Trace of Precipitation, MM = Missing Value Source: NWS Daily Summary

Daily Weather History Graph

Daily Weather History Graph

Search for Another Location

Airport or City:

Trip Planner

Search our weather history database for the weather conditions in past years. The results will help you decide how hot, cold, wet, or windy it might be!

Date:

Astronomy

Aug. 19, 2014 Rise Set
Actual Time 6:30 AM CDT 8:20 PM CDT
Civil Twilight 5:59 AM CDT 8:51 PM CDT
Nautical Twilight 5:21 AM CDT 9:29 PM CDT
Astronomical Twilight 4:40 AM CDT 10:10 PM CDT
Moon 1:19 AM CDT (8/19) 4:22 PM CDT (8/19)
Length of Visible Light 14h 52m
Length of Day
13h 50m
Waning Crescent, 29% of the Moon is Illuminated
Aug 19
Waning Crescent
Aug 25
New
Sep 2
First Quarter
Sep 8
Full
Sep 15
Last Quarter

Hourly Weather History & Observations

Time (CDT) Temp. Heat Index Dew Point Humidity Pressure Visibility Wind Dir Wind Speed Gust Speed Precip Events Conditions
12:13 AM 66.9 °F - 62.6 °F 86% 29.76 in 10.0 mi Calm Calm - N/A   Clear
12:33 AM 65.8 °F - 62.6 °F 89% 29.76 in 10.0 mi Calm Calm - N/A   Clear
12:53 AM 66.2 °F - 62.2 °F 87% 29.76 in 10.0 mi Calm Calm - N/A   Clear
1:13 AM 66.2 °F - 62.1 °F 86% 29.75 in 10.0 mi Calm Calm - N/A   Clear
1:32 AM 66.2 °F - 62.2 °F 87% 29.75 in 10.0 mi Calm Calm - N/A   Clear
1:53 AM 66.2 °F - 62.4 °F 88% 29.75 in 10.0 mi Calm Calm - N/A   Clear
2:13 AM 65.7 °F - 62.2 °F 89% 29.75 in 10.0 mi Calm Calm - N/A   Clear
2:33 AM 66.0 °F - 62.6 °F 89% 29.75 in 10.0 mi Calm Calm - N/A   Clear
2:53 AM 65.3 °F - 62.1 °F 89% 29.75 in 10.0 mi Calm Calm - N/A   Clear
3:12 AM 64.9 °F - 61.9 °F 90% 29.76 in 10.0 mi Calm Calm - N/A   Clear
3:32 AM 64.0 °F - 61.7 °F 92% 29.77 in 10.0 mi Calm Calm - N/A   Clear
3:53 AM 64.6 °F - 61.9 °F 91% 29.77 in 10.0 mi Calm Calm - N/A   Clear
4:13 AM 63.9 °F - 61.3 °F 91% 29.77 in 10.0 mi Calm Calm - N/A   Clear
4:32 AM 63.7 °F - 61.3 °F 92% 29.77 in 10.0 mi Calm Calm - N/A   Clear
4:52 AM 63.5 °F - 61.2 °F 92% 29.77 in 10.0 mi Calm Calm - N/A   Clear
5:13 AM 63.1 °F - 61.0 °F 93% 29.77 in 10.0 mi Calm Calm - N/A   Clear
5:33 AM 62.6 °F - 60.4 °F 93% 29.77 in 10.0 mi Calm Calm - N/A   Clear
5:52 AM 62.8 °F - 61.0 °F 94% 29.78 in 10.0 mi Calm Calm - N/A   Clear
6:13 AM 63.5 °F - 61.2 °F 92% 29.78 in 10.0 mi Calm Calm - N/A   Clear
6:33 AM 63.9 °F - 61.3 °F 91% 29.78 in 10.0 mi Calm Calm - N/A   Clear
6:53 AM 63.5 °F - 61.2 °F 92% 29.78 in 10.0 mi Calm Calm - N/A   Clear
7:13 AM 64.4 °F - 61.7 °F 91% 29.78 in 10.0 mi Calm Calm - N/A   Clear
7:33 AM 65.5 °F - 62.2 °F 89% 29.78 in 10.0 mi Calm Calm - N/A   Clear
7:52 AM 66.2 °F - 62.6 °F 88% 29.79 in 10.0 mi Calm Calm - N/A   Clear
8:13 AM 67.8 °F - 63.3 °F 85% 29.79 in 10.0 mi Calm Calm - N/A   Clear
8:33 AM 69.3 °F - 64.0 °F 83% 29.79 in 10.0 mi Calm Calm - N/A   Clear
8:52 AM 70.9 °F - 64.4 °F 80% 29.79 in 10.0 mi Calm Calm - N/A   Clear
9:13 AM 73.0 °F - 64.9 °F 76% 29.79 in 10.0 mi Calm Calm - N/A   Clear
9:33 AM 74.8 °F - 65.1 °F 72% 29.79 in 10.0 mi Calm Calm - N/A   Clear
9:52 AM 75.7 °F - 64.9 °F 69% 29.80 in 10.0 mi NW 8.1 mph - N/A   Clear
10:12 AM 77.0 °F - 65.3 °F 67% 29.80 in 10.0 mi NW 5.8 mph - N/A   Clear
10:33 AM 77.4 °F - 64.9 °F 65% 29.80 in 10.0 mi NNW 9.2 mph - N/A   Clear
10:52 AM 78.1 °F - 64.9 °F 64% 29.81 in 10.0 mi NNW 9.2 mph - N/A   Clear
11:12 AM 78.8 °F - 64.6 °F 62% 29.81 in 10.0 mi Calm Calm - N/A   Clear
11:33 AM 79.3 °F - 64.9 °F 61% 29.80 in 10.0 mi NW 8.1 mph - N/A   Clear
11:53 AM 80.2 °F 82.1 °F 65.3 °F 60% 29.80 in 10.0 mi NNW 11.5 mph - N/A   Clear
12:12 PM 80.8 °F 82.5 °F 64.6 °F 58% 29.80 in 2.5 mi NNW 11.5 mph 18.4 mph N/A   Haze
12:33 PM 80.8 °F 82.4 °F 64.4 °F 57% 29.80 in 10.0 mi North 9.2 mph - N/A   Scattered Clouds
12:53 PM 80.4 °F 82.3 °F 65.3 °F 60% 29.80 in 10.0 mi North 8.1 mph - N/A   Scattered Clouds
1:13 PM 80.4 °F 82.2 °F 64.9 °F 59% 29.80 in 10.0 mi NNW 8.1 mph - N/A   Scattered Clouds
1:33 PM 82.6 °F 83.9 °F 63.7 °F 53% 29.80 in 10.0 mi NW 8.1 mph - N/A   Mostly Cloudy
1:52 PM 81.1 °F 82.7 °F 64.0 °F 56% 29.80 in 10.0 mi North 3.5 mph - N/A   Mostly Cloudy
2:13 PM 82.0 °F 83.1 °F 62.6 °F 52% 29.80 in 10.0 mi NNW 5.8 mph 16.1 mph N/A   Mostly Cloudy
2:33 PM 81.9 °F 83.2 °F 63.9 °F 54% 29.79 in 10.0 mi Calm Calm - N/A   Overcast
2:53 PM 82.0 °F 83.6 °F 64.4 °F 55% 29.79 in 10.0 mi Calm Calm - N/A   Mostly Cloudy
3:13 PM 82.4 °F 83.7 °F 63.7 °F 53% 29.79 in 10.0 mi Calm Calm - N/A   Scattered Clouds
3:32 PM 80.6 °F 81.9 °F 63.3 °F 55% 29.79 in 10.0 mi Calm Calm - N/A   Clear
3:53 PM 82.9 °F 84.2 °F 63.5 °F 52% 29.79 in 10.0 mi Calm Calm - N/A   Clear
4:13 PM 83.1 °F 84.6 °F 64.4 °F 53% 29.79 in 10.0 mi NNW 6.9 mph - N/A   Clear
4:33 PM 83.1 °F 84.6 °F 64.6 °F 53% 29.79 in 10.0 mi NW 4.6 mph - N/A   Clear
4:52 PM 81.9 °F 83.2 °F 63.7 °F 54% 29.79 in 10.0 mi North 5.8 mph - N/A   Scattered Clouds
5:33 PM 82.4 °F 84.1 °F 64.6 °F 55% 29.78 in 10.0 mi North 4.6 mph - N/A   Scattered Clouds
5:53 PM 81.5 °F 83.3 °F 65.1 °F 57% 29.79 in 10.0 mi Calm Calm - N/A   Scattered Clouds
6:13 PM 81.5 °F 83.6 °F 66.0 °F 59% 29.78 in 10.0 mi Calm Calm - N/A   Clear
6:33 PM 80.1 °F 82.2 °F 66.4 °F 63% 29.79 in 10.0 mi Calm Calm - N/A   Scattered Clouds
6:52 PM 80.1 °F 82.2 °F 66.4 °F 63% 29.78 in 10.0 mi Calm Calm - N/A   Scattered Clouds
7:13 PM 79.5 °F - 66.4 °F 64% 29.78 in 10.0 mi Calm Calm - N/A   Clear
7:33 PM 77.5 °F - 67.5 °F 71% 29.78 in 10.0 mi Calm Calm - N/A   Clear
7:52 PM 76.8 °F - 66.6 °F 70% 29.79 in 10.0 mi Calm Calm - N/A   Clear
8:13 PM 75.2 °F - 65.8 °F 73% 29.79 in 10.0 mi Calm Calm - N/A   Clear
8:33 PM 72.5 °F - 67.3 °F 84% 29.80 in 10.0 mi Calm Calm - N/A   Clear
8:53 PM 72.9 °F - 66.4 °F 80% 29.80 in 10.0 mi Calm Calm - N/A   Clear
9:53 PM 71.4 °F - 65.5 °F 81% 29.82 in 10.0 mi Calm Calm - N/A   Clear
10:13 PM 70.2 °F - 65.3 °F 85% 29.82 in 10.0 mi Calm Calm - N/A   Clear
10:33 PM 70.0 °F - 65.5 °F 86% 29.83 in 10.0 mi Calm Calm - N/A   Clear
10:53 PM 69.6 °F - 65.5 °F 87% 29.83 in 10.0 mi Calm Calm - N/A   Clear
11:13 PM 68.9 °F - 64.8 °F 87% 29.83 in 10.0 mi Calm Calm - N/A   Clear
11:33 PM 69.4 °F - 64.8 °F 85% 29.83 in 10.0 mi Calm Calm - N/A   Clear
11:53 PM 69.4 °F - 64.6 °F 84% 29.83 in 10.0 mi Calm Calm - N/A   Clear